Simultaneous Nadir Overpasses (SNOs) Predictions

Prediction of SNOs between GOES-17 and AQUA Satellite Orbit:

Table of predicted SNOs for the next 14.0 days since TLE Epoch: 12/26/2020
Index Date Time (GOES-17) GOES-17 Lat,Lon AQUA Lat,Lon Distance(km) Time Diff (sec)
1 12/26/2020 22:42:29 0.02,-137.22 0.16,-136.46 87.06 80
2 12/27/2020 11:01:03 -0.02,-137.23 0.94,-141.61 498.45 80
3 12/28/2020 22:30:18 0.00,-137.22 0.80,-133.50 423.35 80
4 12/29/2020 10:48:53 -0.00,-137.23 0.30,-138.65 162.36 80
5 12/31/2020 10:39:22 0.01,-137.22 -0.34,-135.70 172.94 80
6 12/31/2020 22:58:05 -0.01,-137.21 -0.80,-140.89 418.68 80
7 01/02/2021 22:45:54 -0.01,-137.19 -0.15,-137.93 84.31 80
8 01/04/2021 22:36:22 -0.01,-137.17 0.45,-134.97 249.53 80
9 01/05/2021 10:54:57 0.00,-137.17 0.66,-140.12 336.67 80
10 01/07/2021 10:45:26 0.00,-137.14 -0.00,-137.17 3.72 80
